Track CELESTIS 16 (OTB) now! 10-day predictions CELESTIS 16 (OTB) is classified as:
1 44341U 19036C 26249.88116118 .00000823 00000-0 13082-3 0 9992 2 44341 23.9955 182.7311 0010986 181.9197 178.1253 14.57334038383306